Weather reports worldwide

Advertisment
Guadalajara, Spain (8226): temperature & dewpoint: 10.06.2019 13:00:00 - 16.06.2019 13:00:00 (CEST)Guadalajara, Spain (8226): wind speed: 10.06.2019 13:00:00 - 16.06.2019 13:00:00 (CEST)Guadalajara, Spain (8226): wind direction: 10.06.2019 13:00:00 - 16.06.2019 13:00:00 (CEST)Guadalajara, Spain (8226): reduced air pressure: 10.06.2019 13:00:00 - 16.06.2019 13:00:00 (CEST)Guadalajara, Spain (8226): visibility: 10.06.2019 13:00:00 - 16.06.2019 13:00:00 (CEST)Guadalajara, Spain (8226): precipitation: 10.06.2019 13:00:00 - 16.06.2019 13:00:00 (CEST)
Date & Time tt [°C] td [°C] ff [km/h] ff [kn] dd ppp [hPa] vv [km] rr [mm]
16.06.2019 13:00:00 25,9 3,2 5 3 N 1014,6 20 0,0
16.06.2019 12:00:00 24,5 3,2 5 3 WNW 1015,5 20 0,0
16.06.2019 11:00:00 22,1 5,1 8 4 NNW 1016,5 20 -
16.06.2019 10:00:00 19,2 5,3 8 4 N 1017,5 20 0,0
16.06.2019 09:00:00 16,2 5,8 5 3 N 1018,2 20 0,0
16.06.2019 08:00:00 13,2 4,1 5 3 N 1018,6 20 -
16.06.2019 07:00:00 10,8 3,1 4 2 NE 1019,1 20 0,0
16.06.2019 06:00:00 11,4 2,9 5 3 NE 1018,6 20 0,0
16.06.2019 05:00:00 12,3 2,7 4 2 N 1018,4 20 -
16.06.2019 04:00:00 12,5 1,8 4 2 ENE 1018,6 20 0,0
16.06.2019 03:00:00 13,9 0,2 2 1 NE 1018,4 18 0,0
16.06.2019 02:00:00 15,6 0,6 4 2 N 1018,2 20 -
16.06.2019 01:00:00 16,1 -0,6 8 4 ENE 1018,3 20 0,0
16.06.2019 00:00:00 17,3 0,0 4 2 SSW 1017,5 20 0,0
15.06.2019 23:00:00 18,2 0,3 5 3 S 1016,9 20 -
15.06.2019 22:00:00 21,1 1,9 8 4 S 1015,2 20 0,0
15.06.2019 21:00:00 23,5 0,5 5 3 SSW 1014,3 20 0,0
15.06.2019 20:00:00 25,1 -0,2 4 2 WNW 1013,7 20 -
15.06.2019 19:00:00 25,5 -0,6 5 3 SW 1013,6 20 0,0
15.06.2019 18:00:00 25,5 -0,6 9 5 W 1013,7 20 0,0
15.06.2019 17:00:00 24,7 -0,5 8 4 WNW 1014,2 20 -
15.06.2019 16:00:00 24,2 0,5 8 4 W 1014,6 20 0,0
15.06.2019 15:00:00 23,2 0,9 8 4 NNW 1015,2 20 0,0
15.06.2019 14:00:00 22,1 1,1 9 5 W 1015,9 20 -
15.06.2019 13:00:00 21,0 2,3 8 4 W 1016,5 20 0,0
15.06.2019 12:00:00 20,1 2,9 5 3 WSW 1016,8 20 0,0
15.06.2019 11:00:00 18,7 3,7 5 3 WSW 1017,3 20 -
15.06.2019 10:00:00 16,2 3,3 5 3 N 1017,9 20 0,0
15.06.2019 09:00:00 14,6 3,4 4 2 NNW 1018,1 20 0,0
15.06.2019 08:00:00 12,3 3,2 2 1 SSW 1018,2 20 -
15.06.2019 07:00:00 10,8 2,9 4 2 SSW 1018,2 20 0,0
15.06.2019 06:00:00 12,3 3,0 5 3 SW 1017,0 20 0,0
15.06.2019 05:00:00 12,9 2,7 9 5 WSW 1016,8 20 -
15.06.2019 04:00:00 13,8 2,4 9 5 SW 1016,1 20 0,0
15.06.2019 03:00:00 14,5 2,4 9 5 SW 1015,7 20 0,0
15.06.2019 02:00:00 15,1 1,9 9 5 SW 1015,4 20 -
15.06.2019 01:00:00 16,1 1,8 11 6 SW 1014,8 20 0,0
15.06.2019 00:00:00 16,6 1,5 8 4 WSW 1014,2 20 0,0
14.06.2019 23:00:00 18,0 0,6 9 5 SW 1013,6 20 -
14.06.2019 22:00:00 19,5 0,5 15 8 WSW 1012,0 20 0,0
14.06.2019 21:00:00 21,2 -0,2 18 10 WSW 1010,5 20 0,0
14.06.2019 20:00:00 22,8 -0,7 22 12 WSW 1009,3 20 -
14.06.2019 19:00:00 24,1 1,7 16 9 WSW 1008,3 20 0,0
14.06.2019 18:00:00 24,0 0,3 22 12 SW 1008,2 20 0,0
14.06.2019 17:00:00 24,4 -0,7 22 12 WSW 1008,2 20 -
14.06.2019 16:00:00 24,5 1,4 24 13 WSW 1008,2 20 0,0
14.06.2019 15:00:00 24,1 1,0 18 10 W 1008,4 20 0,0
14.06.2019 14:00:00 23,1 2,5 18 10 SW 1008,8 20 -
14.06.2019 13:00:00 22,2 2,8 24 13 WSW 1008,7 20 0,0
14.06.2019 12:00:00 21,4 3,6 16 9 WSW 1009,2 20 0,0
14.06.2019 11:00:00 20,6 3,3 18 10 WSW 1009,3 20 -
14.06.2019 10:00:00 19,1 2,9 13 7 WSW 1009,8 20 0,0
14.06.2019 09:00:00 17,3 8,2 5 3 W 1009,9 20 0,0
14.06.2019 08:00:00 14,6 6,2 2 1 S 1010,2 20 -
14.06.2019 07:00:00 14,2 9,8 5 3 SSW 1010,0 20 0,0
14.06.2019 06:00:00 14,6 4,8 2 1 SSE 1009,5 20 0,0
14.06.2019 05:00:00 16,5 9,4 5 3 SE 1008,8 20 -
14.06.2019 04:00:00 17,7 10,3 13 7 S 1007,9 20 0,0
14.06.2019 03:00:00 17,9 9,8 13 7 S 1008,1 20 0,0
14.06.2019 02:00:00 18,6 5,1 18 10 S 1008,3 20 -
14.06.2019 01:00:00 19,2 0,7 15 8 SSE 1008,3 20 0,0
14.06.2019 00:00:00 20,2 0,6 4 2 SSE 1007,8 20 0,0
13.06.2019 23:00:00 21,4 0,0 8 4 SSW 1006,8 20 -
13.06.2019 22:00:00 23,7 0,1 8 4 WSW 1005,3 20 0,0
13.06.2019 21:00:00 25,7 -0,4 15 8 W 1003,8 20 0,0
13.06.2019 20:00:00 26,6 -0,5 16 9 WSW 1003,1 20 -
13.06.2019 19:00:00 27,5 1,0 18 10 WSW 1002,7 20 0,0
13.06.2019 18:00:00 27,0 6,4 16 9 S 1003,2 20 0,0
13.06.2019 17:00:00 25,7 5,3 18 10 SW 1004,0 20 -
13.06.2019 16:00:00 26,3 5,8 21 11 SW 1004,5 20 0,0
13.06.2019 15:00:00 25,7 5,3 21 11 SW 1005,0 20 0,0
13.06.2019 14:00:00 23,7 6,5 21 11 SW 1006,2 20 -
13.06.2019 13:00:00 22,9 8,2 16 9 SSW 1007,1 20 0,0
13.06.2019 12:00:00 21,7 7,9 15 8 SSW 1008,0 20 0,0
13.06.2019 11:00:00 20,7 9,3 13 7 S 1008,4 20 -
13.06.2019 10:00:00 17,4 9,6 5 3 NNW 1009,7 20 0,0
13.06.2019 09:00:00 15,8 9,0 5 3 NNE 1010,0 20 0,0
13.06.2019 08:00:00 13,3 8,6 2 1 W 1010,4 20 -
13.06.2019 07:00:00 11,9 7,6 4 2 ENE 1010,6 19 0,0
13.06.2019 06:00:00 13,5 8,1 4 2 NE 1009,7 20 0,0
13.06.2019 05:00:00 14,1 7,2 8 4 N 1009,1 20 -
13.06.2019 04:00:00 14,6 6,7 26 14 SE 1008,0 20 0,0
13.06.2019 03:00:00 15,4 7,2 24 13 SE 1008,0 20 0,0
13.06.2019 02:00:00 16,1 6,2 22 12 SE 1008,3 20 -
13.06.2019 01:00:00 16,3 3,7 21 11 SSE 1008,7 20 0,0
13.06.2019 00:00:00 15,7 -4,8 4 2 SSE 1008,8 20 0,0
12.06.2019 23:00:00 17,0 -4,9 2 1 S 1008,4 20 -
12.06.2019 22:00:00 20,6 -3,9 2 1 S 1007,1 20 0,0
12.06.2019 21:00:00 22,4 -6,4 8 4 WSW 1006,6 20 0,0
12.06.2019 20:00:00 23,6 -4,6 13 7 WSW 1006,2 20 -
12.06.2019 19:00:00 24,4 -4,9 11 6 W 1006,0 20 0,0
12.06.2019 18:00:00 24,3 -3,2 8 4 WSW 1006,6 20 0,0
12.06.2019 17:00:00 23,7 -3,6 11 6 WSW 1007,2 20 -
12.06.2019 16:00:00 22,9 -2,0 11 6 W 1008,1 20 0,0
12.06.2019 15:00:00 22,3 -1,8 9 5 WSW 1008,9 20 0,0
12.06.2019 14:00:00 21,1 -1,5 15 8 WSW 1010,3 20 -
12.06.2019 13:00:00 20,1 -0,6 11 6 W 1011,0 20 0,0
12.06.2019 12:00:00 18,8 0,4 5 3 SW 1012,0 20 0,0
12.06.2019 11:00:00 16,6 2,2 5 3 WNW 1012,8 20 -
12.06.2019 10:00:00 14,1 2,6 5 3 NW 1013,8 20 0,0
12.06.2019 09:00:00 12,0 2,7 4 2 N 1014,5 20 0,0
12.06.2019 08:00:00 8,3 1,4 4 2 ENE 1015,2 20 -
12.06.2019 07:00:00 5,7 0,8 2 1 SSE 1015,8 20 0,0
12.06.2019 06:00:00 6,6 0,9 4 2 ENE 1015,1 20 0,0
12.06.2019 05:00:00 7,3 0,7 2 1 ENE 1014,9 20 -
12.06.2019 04:00:00 8,6 0,6 4 2 NNE 1014,8 20 0,0
12.06.2019 03:00:00 10,0 1,1 4 2 NNE 1014,3 20 0,0
12.06.2019 02:00:00 10,8 0,2 4 2 NE 1014,4 20 -
12.06.2019 01:00:00 10,7 -2,0 4 2 NNE 1014,6 20 0,0
12.06.2019 00:00:00 12,8 -2,7 5 3 ENE 1014,2 20 0,0
11.06.2019 23:00:00 14,0 -3,8 11 6 ENE 1013,9 20 -
11.06.2019 22:00:00 15,8 -2,7 9 5 NE 1013,0 20 0,0
11.06.2019 21:00:00 17,4 -4,0 13 7 NE 1012,1 20 0,0
11.06.2019 20:00:00 19,1 -3,1 9 5 N 1011,0 20 -
11.06.2019 19:00:00 19,8 -3,2 11 6 N 1010,3 20 0,0
11.06.2019 18:00:00 19,8 -5,2 13 7 N 1010,3 20 0,0
11.06.2019 17:00:00 20,4 -3,3 11 6 NNE 1010,0 20 -
11.06.2019 16:00:00 19,5 0,0 9 5 N 1010,5 20 0,0
11.06.2019 15:00:00 17,7 1,2 9 5 NNE 1011,3 20 0,0
11.06.2019 14:00:00 17,8 2,9 15 8 NE 1011,1 20 -
11.06.2019 13:00:00 15,4 4,4 22 12 ENE 1011,8 20 0,0
11.06.2019 12:00:00 14,2 5,0 18 10 NE 1011,8 20 0,0
11.06.2019 11:00:00 14,0 4,8 21 11 NE 1011,3 20 -
11.06.2019 10:00:00 13,8 4,9 11 6 NE 1011,3 20 0,0
11.06.2019 09:00:00 13,1 4,8 16 9 ENE 1011,1 20 0,0
11.06.2019 08:00:00 13,7 5,3 11 6 ENE 1010,4 20 -
11.06.2019 07:00:00 13,8 5,7 11 6 ENE 1010,2 19 0,0
11.06.2019 06:00:00 14,1 4,7 8 4 NE 1009,6 20 0,0
11.06.2019 05:00:00 14,1 3,5 8 4 ENE 1009,8 20 -
11.06.2019 04:00:00 13,8 3,3 4 2 NE 1010,2 20 0,0
11.06.2019 03:00:00 13,5 2,7 2 1 SW 1010,9 20 0,0
11.06.2019 02:00:00 15,0 2,8 9 5 NE 1011,1 20 -
11.06.2019 01:00:00 16,3 1,9 15 8 E 1010,9 20 0,0
11.06.2019 00:00:00 17,5 2,2 18 10 E 1010,9 20 0,0
10.06.2019 23:00:00 18,8 0,4 5 3 E 1010,7 20 -
10.06.2019 22:00:00 21,0 0,2 4 2 NE 1009,4 20 0,0
10.06.2019 21:00:00 23,0 0,1 8 4 NNW 1008,6 20 0,0
10.06.2019 20:00:00 24,9 -0,3 8 4 NW 1007,8 20 -
10.06.2019 19:00:00 24,8 1,6 5 3 SW 1008,3 20 0,0
10.06.2019 18:00:00 25,7 3,0 5 3 W 1008,5 20 0,0
10.06.2019 17:00:00 25,1 3,1 13 7 WSW 1009,4 20 -
10.06.2019 16:00:00 24,7 3,3 8 4 NW 1010,0 20 0,0
10.06.2019 15:00:00 24,3 1,8 5 3 NE 1010,7 20 0,0
10.06.2019 14:00:00 23,7 1,9 8 4 NW 1011,5 20 -
10.06.2019 13:00:00 23,0 3,0 8 4 W 1012,3 20 0,0

tt = temperature
td = dewpoint
ff = wind speed
dd = wind direction
ppp = reduced air pressure
vv = visibility
rr = precipitation

Next stations